Regional Weather Roundup
Issued by NWS

Home | Current Version | Previous Version | Text Only | Print | Product List | Glossary Off
Versions: 1 2 3 4 5 6 7 8 9 10 11 12 13 14 15 16 17 18 19 20 21 22 23 24 25 26 27 28 29 30 31 32 33 34 35 36 37 38 39 40 41 42 43 44 45 46 47 48 49 50

399
ASUS43 KMKX 241911
RWRWI

WISCONSIN REGIONAL WEATHER ROUNDUP
NATIONAL WEATHER SERVICE MILWAUKEE/SULLIVAN WI
200 PM CDT MON JUL 24 2017

NOTE: "FAIR" INDICATES FEW OR NO CLOUDS BELOW 12,000 FEET WITH NO
SIGNIFICANT WEATHER AND/OR OBSTRUCTIONS TO VISIBILITY.

WIZ001-002-006>008-014>016-023>028-242000-
NORTHWEST WISCONSIN

CITY           SKY/WX    TMP DP  RH WIND       PRES   REMARKS
SUPERIOR ARPT  NOT AVBL
ASHLAND        SUNNY     74  63  68 NE9       30.06F
HAYWARD        SUNNY     72  53  51 VRB3      30.08F
SIREN          SUNNY     75  56  52 CALM      30.06F
CUMBERLAND     SUNNY     70  54  56 SE3       30.08F
RICE LAKE      SUNNY     70  55  58 E5        30.10S
CHETEK         SUNNY     70  58  66 NE6       30.08F
LADYSMITH      SUNNY     73  55  53 CALM      30.10F
EAU CLAIRE     MOSUNNY   72  57  59 MISG      30.07S
MENOMONIE      SUNNY     72  58  61 SE6       30.08F
NEW RICHMOND   MOSUNNY   74  57  55 SE6       30.07S
OSCEOLA        MOSUNNY   74  58  57 CALM      30.08F
$$

WIZ003>005-009-010-017-018-242000-
NORTH CENTRAL WISCONSIN

CITY           SKY/WX    TMP DP  RH WIND       PRES   REMARKS
MANITOWISH WTR SUNNY     73  49  43 S5        30.10S
ARBOR VITAE    SUNNY     73  50  43 SE5       30.09S
WOODRUFF       SUNNY     73  50  43 SE5       30.09S
RHINELANDER    SUNNY     74  51  44 VRB7      30.10F
EAGLE RIVER    SUNNY     74  48  40 S7        30.10S
LAND O LAKES   SUNNY     74  46  37 E6        30.11F
PHILLIPS       SUNNY     72  54  53 SE5       30.09S
TOMAHAWK         N/A     72  51  47 E3        30.10F
MEDFORD        MOSUNNY   71  56  57 SE5       30.09F
MERRILL        SUNNY     73  54  50 CALM      30.10S
$$

WIZ029-030-035-036-043>047-242000-
CENTRAL WISCONSIN

CITY           SKY/WX    TMP DP  RH WIND       PRES   REMARKS
WAUSAU         SUNNY     74  53  48 SE9       30.07F
MOSINEE        MOSUNNY   73  54  49 VRB5      30.10F
MARSHFIELD     MOSUNNY   73  56  54 SE8       30.08F
STEVENS POINT  MOSUNNY   72  53  50 SE7       30.10S
WAUPACA        SUNNY     77  54  44 E6        30.09S
WAUTOMA        PTSUNNY   73  57  57 VRB6      30.09S
WISC RAPIDS    MOSUNNY   76  56  49 MISG      30.09F
CAMP DOUGLAS   MOSUNNY   72  59  64 SE5       30.08S
$$

WIZ011>013-019>022-031-037>040-048>050-242000-
NORTHEAST WISCONSIN

CITY           SKY/WX    TMP DP  RH WIND       PRES   REMARKS
ANTIGO         SUNNY     72  51  48 SE6       30.10S
SHAWANO        SUNNY     75  53  46 NE7       30.09S
OCONTO         SUNNY     71  51  49 E9        30.09S
STURGEON BAY     N/A     70  56  61 N9        30.09F
GREEN BAY      SUNNY     73  58  59 NE9       30.09S
MANITOWOC      SUNNY     69  51  52 NE10      30.09F
APPLETON       MOSUNNY   72  50  46 E6        30.08S
CLINTONVILLE   MOSUNNY  N/A N/A N/A SE7       30.08F
OSHKOSH        MOSUNNY   72  56  57 CALM      30.08S
$$

WIZ032>034-041-042-053>061-242000-
SOUTHWEST WISCONSIN

CITY           SKY/WX    TMP DP  RH WIND       PRES   REMARKS
LA CROSSE      PTSUNNY   74  59  59 S5        30.07F
SPARTA         PTSUNNY   72  58  59 E7        30.09S
VIROQUA        CLOUDY    68  59  72 CALM      30.09F
BOSCOBEL       CLOUDY    74  58  57 VRB3      30.07S
PRAIRIE DU CHI PTSUNNY   73  56  56 E6        30.06S
PLATTEVILLE    PTSUNNY   72  61  67 NE5       30.07S
$$

WIZ056-057-062-063-064-067-068-242000-
SOUTH CENTRAL WISCONSIN

CITY           SKY/WX    TMP DP  RH WIND       PRES   REMARKS
REEDSBURG      CLOUDY    70  59  66 SE3       30.08S
BARABOO/DELLS  PTSUNNY   75  56  52 S3        30.09R
LONE ROCK      PTSUNNY   72  58  61 VRB3      30.08S
MINERAL POINT  CLOUDY    72  61  68 E6        30.09S
MADISON        PTSUNNY   72  58  61 NE6       30.07S
MIDDLETON      PTSUNNY   73  58  59 E3        30.08F
WATERTOWN      PTSUNNY   72  59  63 NE7       30.07S
MONROE         PTSUNNY   70  57  64 E3        30.07F
JANESVILLE     PTSUNNY   73  59  60 NE6       30.06F
$$

WIZ051-052-058>065-066-070>072-242000-
SOUTHEAST WISCONSIN

CITY           SKY/WX    TMP DP  RH WIND       PRES   REMARKS
MILWAUKEE      PTSUNNY   70  60  70 N17       30.08R
WAUKESHA       MOSUNNY   70  55  60 NE12G18   30.09S
MILWAUKEE/TIMM MOSUNNY   70  54  56 NE12G20   30.09S
RACINE         PTSUNNY   70  61  73 NE18      30.09S
KENOSHA        PTSUNNY   72  59  63 NE12G21   30.07S
FOND DU LAC    MOSUNNY   75  53  46 NE8       30.08S
SHEBOYGAN      SUNNY     70  57  63 NE15      30.09S
WEST BEND      MOSUNNY   70  55  60 E10G17    30.08S
JUNEAU         MOSUNNY   73  58  59 E7        30.09S
$$

LSZ147-162-242000-
LAKE SUPERIOR

STATION/POSITION TIME  TEMP    WIND        PRES    WAVE
                       AIR SEA DIR/SP/G            HT/PER
                 (UTC) (F)     (DEG/KT/KT) (MB)    (FT/S)
W MID LAKE BUOY  1750   51 50  220/  4/  4 1019.5F   0
DEVILS ISLAND    1900   58      50/  6/  7 1018.7F
PORT WING        1820   58     360/  9/ 10 1018.6
SAXON HARBOR     1840   63      40/  8/  9 1018.3F
$$

LMZ867-665-643>646-242000-
LAKE MICHIGAN

STATION/POSITION TIME  TEMP    WIND        PRES    WAVE
                       AIR SEA DIR/SP/G            HT/PER
                 (UTC) (F)     (DEG/KT/KT) (MB)    (FT/S)
CHAMBERS ISLAND  1840   68      70/  8/ 11 1017.9F
S GREEN BAY BUOY 1900   68 72   50/ 10/ 14 1018.6
N MID LAKE BUOY  1850   66 66   20/  6/  8 1019.0F   2/ 4
NORTHPORT PIER   1840   69     330/  6/  8 1018.3F
KEWAUNEE LAKESHO 1848   69      50/  5/ 10 1018.3R
SHEBOYGAN LAKESH 1900   64      20/ 15/ 16 1018.5F
PORT WASHINGTON  1840   68      50/ 11/ 16 1019.6S
ATWATER BUOY     1709   66 68   30/ 16/ 21 1018.5R
MILWAUKEE LAKESH 1850   65      20/ 14/ 16   N/A
S MID LAKE BUOY  1750   66 70   20/ 12/ 16 1017.4R   4/ 7
KENOSHA   LAKESH 1900   66      30/ 16/ 20 1017.9
$$

TC  - TEMPERATURE IN CELSIUS
VSB - VISIBILITY IN STATUTE MILES
WCI - WIND CHILL INDEX
HX  - HEAT INDEX





USA.gov is the U.S. government's official web portal to all federal, state and local government web resources and services.